RYR3VT LIMC-EGCC

Flight info

Callsign RYR3VT
Flight time 1h 49m
Altitude 38000
Route AOSTA DCT ORSUD DCT MOLUS DCT IBODI DCT GOTED DCT TRO DCT CLM DCT KOPOR DCT VESAN DCT RATUK DCT SOVAT L613 SANDY UN57 WELIN T420 ELVOS
Aircraft B738/M-SDE2E3FGHIRWXY/LB1

Departure

Time 2026-05-04 07:16
Airport Milan Malpensa International Airport (LIMC)

Arrival

Time 2026-05-04 09:06
Airport Manchester Airport (EGCC)
Time Latitude Longitude Altitude Speed Heading
2026-05-04 06:48 45.62864 8.71587 733 ft 0 kts 169°
2026-05-04 07:04 45.62876 8.71584 733 ft 2 kts 165°
2026-05-04 07:05 45.62892 8.71578 732 ft 2 kts 162°
2026-05-04 07:05 45.62907 8.71569 733 ft 2 kts 154°
2026-05-04 07:05 45.62921 8.71557 733 ft 2 kts 135°
2026-05-04 07:05 45.62930 8.71538 734 ft 2 kts 97°
2026-05-04 07:06 45.62930 8.71518 734 ft 0 kts 81°
2026-05-04 07:08 45.62937 8.71955 733 ft 11 kts 167°
2026-05-04 07:09 45.62849 8.71980 731 ft 16 kts 169°
2026-05-04 07:09 45.62722 8.72014 729 ft 22 kts 169°
2026-05-04 07:09 45.62557 8.72060 728 ft 26 kts 169°
2026-05-04 07:09 45.62370 8.72112 721 ft 28 kts 169°
2026-05-04 07:10 45.62171 8.72168 720 ft 30 kts 169°
2026-05-04 07:10 45.61977 8.72221 716 ft 27 kts 169°
2026-05-04 07:12 45.61083 8.72741 691 ft 16 kts 77°
2026-05-04 07:12 45.61109 8.72896 693 ft 17 kts 77°
2026-05-04 07:12 45.61147 8.73061 691 ft 18 kts 48°
2026-05-04 07:12 45.61252 8.73166 694 ft 18 kts 33°
2026-05-04 07:13 45.61358 8.73260 694 ft 18 kts 24°
2026-05-04 07:13 45.61476 8.73250 700 ft 17 kts 349°
2026-05-04 07:13 45.61583 8.73227 702 ft 13 kts 11°
2026-05-04 07:14 45.61589 8.73652 701 ft 2 kts 82°
2026-05-04 07:14 45.61590 8.73659 694 ft 0 kts 80°
2026-05-04 07:15 45.61591 8.73663 695 ft 1 kts 79°
2026-05-04 07:15 45.61595 8.73687 696 ft 4 kts 72°
2026-05-04 07:15 45.61620 8.73731 698 ft 8 kts 20°
2026-05-04 07:15 45.61700 8.73716 703 ft 26 kts 349°
2026-05-04 07:16 45.62120 8.73600 712 ft 95 kts 349°
2026-05-04 07:16 45.62973 8.73362 732 ft 152 kts 349°
2026-05-04 07:16 45.64121 8.73050 1104 ft 173 kts 349°
2026-05-04 07:16 45.65295 8.72739 1851 ft 179 kts 354°
2026-05-04 07:17 45.66549 8.72701 2571 ft 180 kts
2026-05-04 07:17 45.67863 8.72704 3151 ft 197 kts 359°
2026-05-04 07:17 45.69293 8.72665 3685 ft 213 kts 358°
2026-05-04 07:17 45.70831 8.72627 3994 ft 231 kts 359°
2026-05-04 07:18 45.72408 8.72081 4351 ft 244 kts 325°
2026-05-04 07:18 45.73506 8.70198 4894 ft 252 kts 290°
2026-05-04 07:18 45.73720 8.67773 5747 ft 245 kts 259°
2026-05-04 07:18 45.73218 8.65434 6469 ft 250 kts 244°
2026-05-04 07:19 45.72444 8.63171 7212 ft 252 kts 242°
2026-05-04 07:19 45.71729 8.60956 8279 ft 241 kts 243°
2026-05-04 07:19 45.70935 8.58824 8924 ft 250 kts 236°
2026-05-04 07:19 45.69958 8.56631 9230 ft 269 kts 234°
2026-05-04 07:20 45.68932 8.54345 9943 ft 274 kts 234°
2026-05-04 07:20 45.67899 8.52026 10564 ft 283 kts 235°
2026-05-04 07:20 45.66794 8.49558 10729 ft 306 kts 235°
2026-05-04 07:20 45.65618 8.46926 11166 ft 319 kts 236°
2026-05-04 07:22 45.58454 8.27250 16184 ft 354 kts 279°
2026-05-04 07:22 45.59168 8.23849 16828 ft 361 kts 285°
2026-05-04 07:23 45.59987 8.20431 17466 ft 367 kts 286°
2026-05-04 07:23 45.60826 8.16976 18183 ft 370 kts 286°
2026-05-04 07:23 45.61666 8.13474 18730 ft 376 kts 285°
2026-05-04 07:23 45.62506 8.09917 19328 ft 379 kts 285°
2026-05-04 07:24 45.63340 8.06337 19948 ft 380 kts 285°
2026-05-04 07:24 45.64163 8.02781 20563 ft 383 kts 285°
2026-05-04 07:24 45.64949 7.99375 21118 ft 385 kts 285°
2026-05-04 07:24 45.65788 7.95728 21705 ft 388 kts 285°
2026-05-04 07:25 45.66646 7.91989 22256 ft 392 kts 285°
2026-05-04 07:26 45.72670 7.65492 25794 ft 408 kts 284°
2026-05-04 07:27 45.73546 7.61626 26215 ft 410 kts 284°
2026-05-04 07:27 45.74424 7.57722 26620 ft 412 kts 284°
2026-05-04 07:27 45.75312 7.53765 27018 ft 415 kts 284°
2026-05-04 07:27 45.76204 7.49789 27452 ft 417 kts 284°
2026-05-04 07:28 45.77082 7.45876 27853 ft 419 kts 284°
2026-05-04 07:28 45.77985 7.41842 28262 ft 421 kts 284°
2026-05-04 07:28 45.78899 7.37886 28641 ft 426 kts 288°
2026-05-04 07:28 45.79839 7.35333 28867 ft 435 kts 300°
2026-05-04 07:29 45.81896 7.32090 29239 ft 447 kts 317°
2026-05-04 07:29 45.84434 7.29468 29658 ft 450 kts 321°
2026-05-04 07:29 45.87041 7.26938 29961 ft 454 kts 322°
2026-05-04 07:29 45.89668 7.24383 30253 ft 457 kts 321°
2026-05-04 07:30 45.92281 7.21783 30538 ft 458 kts 320°
2026-05-04 07:30 45.94890 7.19143 30836 ft 459 kts 320°
2026-05-04 07:30 45.97493 7.16486 31151 ft 457 kts 320°
2026-05-04 07:30 46.00068 7.13846 31555 ft 455 kts 320°
2026-05-04 07:31 46.02637 7.11207 32026 ft 452 kts 319°
2026-05-04 07:31 46.05199 7.08573 32472 ft 450 kts 319°
2026-05-04 07:33 46.22678 6.90528 34770 ft 443 kts 319°
2026-05-04 07:33 46.25182 6.87930 34979 ft 443 kts 319°
2026-05-04 07:33 46.27679 6.85337 35231 ft 443 kts 319°
2026-05-04 07:33 46.30180 6.82738 35520 ft 442 kts 319°
2026-05-04 07:34 46.32673 6.80145 35795 ft 442 kts 319°
2026-05-04 07:34 46.35179 6.77533 35922 ft 445 kts 319°
2026-05-04 07:34 46.37694 6.74909 36172 ft 445 kts 319°
2026-05-04 07:34 46.40201 6.72293 36487 ft 443 kts 319°
2026-05-04 07:35 46.42702 6.69681 36724 ft 443 kts 319°
2026-05-04 07:35 46.45132 6.66960 36952 ft 439 kts 312°
2026-05-04 07:35 46.47293 6.63864 37178 ft 436 kts 309°
2026-05-04 07:35 46.49380 6.60669 37416 ft 435 kts 308°
2026-05-04 07:36 46.51440 6.57467 37649 ft 435 kts 308°
2026-05-04 07:36 46.53502 6.54267 37909 ft 434 kts 309°
2026-05-04 07:38 46.68108 6.31979 38029 ft 429 kts 309°
2026-05-04 07:38 46.70168 6.28835 38031 ft 428 kts 309°
2026-05-04 07:38 46.74242 6.22603 38043 ft 430 kts 309°
2026-05-04 07:39 46.78399 6.16223 38046 ft 437 kts 309°
2026-05-04 07:39 46.82600 6.09767 38051 ft 441 kts 308°
2026-05-04 07:40 46.86830 6.03253 38050 ft 442 kts 308°
2026-05-04 07:40 46.90937 5.96913 38047 ft 443 kts 308°
2026-05-04 07:41 46.95287 5.90524 38038 ft 447 kts 316°
2026-05-04 07:41 47.00653 5.85738 38069 ft 454 kts 328°
2026-05-04 07:42 47.06277 5.81545 38047 ft 452 kts 328°
2026-05-04 07:42 47.11818 5.77364 38046 ft 449 kts 328°
2026-05-04 07:43 47.17378 5.73089 38049 ft 448 kts 327°
2026-05-04 07:43 47.22879 5.68825 38040 ft 447 kts 327°
2026-05-04 07:44 47.28369 5.64559 38034 ft 446 kts 327°
2026-05-04 07:44 47.33856 5.60287 38040 ft 446 kts 327°
2026-05-04 07:45 47.39343 5.56007 38038 ft 446 kts 327°
2026-05-04 07:45 47.44810 5.51732 38039 ft 448 kts 327°
2026-05-04 07:46 47.50279 5.47338 38028 ft 446 kts 321°
2026-05-04 07:46 47.54820 5.41299 38041 ft 435 kts 302°
2026-05-04 07:47 47.58396 5.34098 38034 ft 435 kts 300°
2026-05-04 07:49 47.72702 5.04939 38021 ft 438 kts 301°
2026-05-04 07:49 47.76190 4.97843 38023 ft 438 kts 301°
2026-05-04 07:50 47.79779 4.90523 38004 ft 438 kts 301°
2026-05-04 07:50 47.83354 4.83208 38006 ft 437 kts 300°
2026-05-04 07:51 47.86919 4.75895 38014 ft 436 kts 300°
2026-05-04 07:51 47.90476 4.68578 37998 ft 435 kts 300°
2026-05-04 07:52 47.94025 4.61258 38003 ft 436 kts 300°
2026-05-04 07:52 47.97567 4.53931 38003 ft 435 kts 300°
2026-05-04 07:54 48.11684 4.24535 38018 ft 439 kts 300°
2026-05-04 07:55 48.15241 4.17077 38019 ft 441 kts 300°
2026-05-04 07:55 48.18810 4.09576 38011 ft 443 kts 300°
2026-05-04 07:56 48.22378 4.02057 38022 ft 443 kts 300°
2026-05-04 07:56 48.25918 3.94818 38016 ft 447 kts 306°
2026-05-04 07:57 48.30192 3.87991 38016 ft 450 kts 309°
2026-05-04 07:57 48.34572 3.81290 38018 ft 449 kts 309°
2026-05-04 07:58 48.38916 3.74532 37998 ft 449 kts 308°
2026-05-04 07:58 48.43224 3.67729 37989 ft 449 kts 308°
2026-05-04 07:59 48.47518 3.60905 37987 ft 448 kts 308°
2026-05-04 07:59 48.51803 3.54077 37983 ft 448 kts 308°
2026-05-04 08:00 48.56085 3.47237 37989 ft 447 kts 308°
2026-05-04 08:02 48.73090 3.19906 37981 ft 446 kts 308°
2026-05-04 08:02 48.77326 3.13052 37978 ft 445 kts 308°
2026-05-04 08:03 48.81555 3.06194 37981 ft 445 kts 308°
2026-05-04 08:03 48.86045 2.99904 37986 ft 452 kts 322°
2026-05-04 08:04 48.91415 2.95127 37989 ft 456 kts 327°
2026-05-04 08:04 48.96959 2.90421 37980 ft 457 kts 326°
2026-05-04 08:05 49.02477 2.85648 37977 ft 456 kts 326°
2026-05-04 08:05 49.07934 2.80853 37995 ft 455 kts 326°
2026-05-04 08:06 49.13410 2.76012 37987 ft 455 kts 326°
2026-05-04 08:06 49.18889 2.71156 37989 ft 454 kts 326°
2026-05-04 08:08 49.40718 2.51698 37983 ft 455 kts 326°
2026-05-04 08:10 49.63966 2.36318 37988 ft 461 kts 341°
2026-05-04 08:11 49.67016 2.34982 37982 ft 461 kts 341°
2026-05-04 08:11 49.76292 2.30801 37985 ft 461 kts 341°
2026-05-04 08:12 49.82442 2.27986 37986 ft 461 kts 341°
2026-05-04 08:12 49.88559 2.25177 37998 ft 462 kts 341°
2026-05-04 08:13 49.93715 2.22805 37996 ft 462 kts 341°
2026-05-04 08:13 50.00861 2.19512 37998 ft 462 kts 341°
2026-05-04 08:14 50.06025 2.17125 37991 ft 462 kts 341°
2026-05-04 08:16 50.30554 2.05715 37993 ft 459 kts 341°
2026-05-04 08:16 50.36556 2.02413 37990 ft 455 kts 329°
2026-05-04 08:17 50.41514 1.97010 38013 ft 447 kts 315°
2026-05-04 08:17 50.46173 1.90518 38000 ft 447 kts 315°
2026-05-04 08:19 50.64935 1.64662 38009 ft 450 kts 316°
2026-05-04 08:20 50.69649 1.58148 38001 ft 451 kts 316°
2026-05-04 08:20 50.74365 1.51614 37999 ft 451 kts 316°
2026-05-04 08:21 50.79077 1.45069 38002 ft 451 kts 316°
2026-05-04 08:21 50.83795 1.38506 38022 ft 451 kts 316°
2026-05-04 08:22 50.88502 1.31942 38007 ft 451 kts 316°
2026-05-04 08:24 51.07156 1.05725 37998 ft 443 kts 315°
2026-05-04 08:24 51.11457 0.99170 37999 ft 441 kts 313°
2026-05-04 08:25 51.15788 0.92341 38020 ft 441 kts 313°
2026-05-04 08:25 51.20151 0.85486 38006 ft 441 kts 313°
2026-05-04 08:27 51.37727 0.57930 38024 ft 444 kts 313°
2026-05-04 08:28 51.42106 0.51020 38029 ft 445 kts 313°
2026-05-04 08:28 51.46513 0.44043 38013 ft 446 kts 313°
2026-05-04 08:29 51.50934 0.37026 38028 ft 447 kts 313°
2026-05-04 08:31 51.68646 0.08620 37463 ft 449 kts 313°
2026-05-04 08:33 51.83271 -0.15541 35688 ft 423 kts 312°
2026-05-04 08:33 51.85281 -0.18875 35369 ft 417 kts 312°
2026-05-04 08:35 51.99073 -0.41872 32744 ft 395 kts 310°
2026-05-04 08:35 52.00972 -0.45054 32386 ft 391 kts 310°
2026-05-04 08:35 52.02854 -0.48212 32037 ft 388 kts 310°
2026-05-04 08:35 52.04724 -0.51357 31678 ft 385 kts 310°
2026-05-04 08:37 52.15625 -0.69764 29600 ft 368 kts 309°
2026-05-04 08:37 52.17390 -0.72757 29260 ft 364 kts 309°
2026-05-04 08:37 52.19115 -0.75687 28902 ft 361 kts 309°
2026-05-04 08:38 52.20842 -0.78622 28545 ft 357 kts 309°
2026-05-04 08:38 52.22552 -0.81531 28191 ft 354 kts 309°
2026-05-04 08:38 52.24267 -0.84399 27841 ft 352 kts 313°
2026-05-04 08:40 52.38714 -0.99116 25442 ft 343 kts 325°
2026-05-04 08:40 52.40625 -1.01020 25127 ft 342 kts 326°
2026-05-04 08:40 52.42651 -1.03043 24774 ft 340 kts 326°
2026-05-04 08:41 52.44672 -1.05063 24428 ft 339 kts 326°
2026-05-04 08:41 52.46682 -1.07074 24082 ft 339 kts 325°
2026-05-04 08:41 52.48690 -1.09086 23730 ft 338 kts 325°
2026-05-04 08:41 52.50701 -1.11116 23270 ft 340 kts 325°
2026-05-04 08:42 52.52703 -1.13148 22914 ft 337 kts 325°
2026-05-04 08:42 52.54693 -1.15169 22544 ft 335 kts 325°
2026-05-04 08:42 52.56668 -1.17173 22209 ft 333 kts 325°
2026-05-04 08:42 52.58633 -1.19162 21871 ft 330 kts 325°
2026-05-04 08:43 52.60580 -1.21132 21531 ft 328 kts 325°
2026-05-04 08:43 52.62520 -1.23097 21215 ft 325 kts 325°
2026-05-04 08:43 52.64438 -1.25042 20897 ft 323 kts 325°
2026-05-04 08:43 52.66350 -1.26983 20576 ft 321 kts 325°
2026-05-04 08:44 52.68221 -1.28885 20259 ft 319 kts 326°
2026-05-04 08:44 52.70105 -1.30802 19938 ft 318 kts 326°
2026-05-04 08:46 52.83625 -1.44586 17240 ft 329 kts 326°
2026-05-04 08:46 52.85567 -1.46573 16843 ft 327 kts 326°
2026-05-04 08:46 52.87500 -1.48553 16453 ft 326 kts 326°
2026-05-04 08:46 52.89423 -1.50526 16081 ft 324 kts 326°
2026-05-04 08:47 52.91334 -1.52489 15694 ft 323 kts 327°
2026-05-04 08:47 52.93240 -1.54449 15327 ft 322 kts 326°
2026-05-04 08:47 52.95137 -1.56401 14951 ft 320 kts 327°
2026-05-04 08:47 52.97029 -1.58351 14587 ft 319 kts 326°
2026-05-04 08:48 52.98912 -1.60293 14212 ft 318 kts 327°
2026-05-04 08:48 53.00758 -1.62198 13852 ft 317 kts 327°
2026-05-04 08:48 53.02628 -1.64130 13442 ft 316 kts 327°
2026-05-04 08:48 53.04489 -1.66054 13046 ft 315 kts 326°
2026-05-04 08:49 53.06198 -1.68291 12644 ft 312 kts 311°
2026-05-04 08:50 53.14415 -1.84475 10521 ft 301 kts 309°
2026-05-04 08:50 53.15772 -1.87115 10169 ft 300 kts 309°
2026-05-04 08:51 53.17118 -1.89737 9991 ft 292 kts 309°
2026-05-04 08:51 53.18407 -1.92246 9973 ft 279 kts 309°
2026-05-04 08:51 53.19644 -1.94660 9848 ft 270 kts 309°
2026-05-04 08:51 53.20858 -1.97031 9542 ft 268 kts 309°
2026-05-04 08:52 53.22061 -1.99386 9156 ft 266 kts 309°
2026-05-04 08:52 53.23145 -2.01571 8821 ft 263 kts 302°
2026-05-04 08:52 53.23756 -2.04341 8605 ft 252 kts 278°
2026-05-04 08:52 53.23805 -2.07282 8185 ft 254 kts 268°
2026-05-04 08:53 53.23697 -2.10229 7801 ft 254 kts 266°
2026-05-04 08:54 53.22872 -2.30606 5529 ft 246 kts 268°
2026-05-04 08:55 53.22766 -2.33424 5416 ft 238 kts 267°
2026-05-04 08:55 53.22699 -2.35225 5364 ft 233 kts 267°
2026-05-04 08:55 53.22600 -2.37880 5224 ft 226 kts 268°
2026-05-04 08:55 53.22502 -2.40471 5060 ft 222 kts 268°
2026-05-04 08:57 53.17519 -2.55483 3611 ft 221 kts 230°
2026-05-04 09:01 53.22092 -2.54617 2987 ft 169 kts 51°
2026-05-04 09:01 53.22807 -2.53103 2996 ft 168 kts 51°
2026-05-04 09:01 53.23528 -2.51576 2997 ft 168 kts 51°
2026-05-04 09:01 53.24251 -2.50044 3009 ft 169 kts 51°
2026-05-04 09:02 53.24989 -2.48482 2862 ft 174 kts 52°
2026-05-04 09:02 53.25738 -2.46898 2625 ft 172 kts 52°
2026-05-04 09:02 53.26468 -2.45354 2403 ft 166 kts 52°
2026-05-04 09:02 53.27167 -2.43876 2173 ft 157 kts 52°
2026-05-04 09:03 53.27814 -2.42508 1975 ft 147 kts 52°
2026-05-04 09:03 53.28441 -2.41183 1781 ft 144 kts 52°
2026-05-04 09:03 53.29065 -2.39865 1577 ft 145 kts 52°
2026-05-04 09:03 53.29680 -2.38551 1395 ft 144 kts 53°
2026-05-04 09:04 53.30306 -2.37232 1233 ft 144 kts 52°
2026-05-04 09:04 53.30911 -2.35874 1023 ft 147 kts 54°
2026-05-04 09:04 53.31549 -2.34515 800 ft 149 kts 52°
2026-05-04 09:04 53.32183 -2.33180 582 ft 145 kts 52°
2026-05-04 09:05 53.32812 -2.31866 387 ft 145 kts 51°
2026-05-04 09:05 53.33440 -2.30580 230 ft 138 kts 51°
2026-05-04 09:05 53.33979 -2.29458 242 ft 107 kts 51°
2026-05-04 09:05 53.34369 -2.28651 251 ft 72 kts 51°
2026-05-04 09:06 53.34620 -2.28225 260 ft 44 kts 27°
2026-05-04 09:07 53.34888 -2.28034 259 ft 8 kts 44°
2026-05-04 09:08 53.34926 -2.27957 259 ft 9 kts 50°
2026-05-04 09:08 53.34973 -2.27864 258 ft 11 kts 50°
2026-05-04 09:08 53.35023 -2.27760 258 ft 11 kts 51°
2026-05-04 09:08 53.35072 -2.27658 258 ft 11 kts 51°
2026-05-04 09:09 53.35120 -2.27559 258 ft 11 kts 51°
2026-05-04 09:09 53.35166 -2.27463 258 ft 10 kts 51°
2026-05-04 09:09 53.35210 -2.27369 257 ft 11 kts 51°
2026-05-04 09:09 53.35263 -2.27262 253 ft 13 kts 51°
2026-05-04 09:10 53.35327 -2.27128 248 ft 16 kts 51°
2026-05-04 09:10 53.35374 -2.27032 246 ft 9 kts 51°
2026-05-04 09:10 53.35419 -2.26939 243 ft 11 kts 51°
2026-05-04 09:10 53.35491 -2.26909 240 ft 13 kts 328°
2026-05-04 09:11 53.35565 -2.27005 238 ft 14 kts 320°
2026-05-04 09:11 53.35636 -2.27102 239 ft 13 kts 320°
2026-05-04 09:11 53.35703 -2.27187 239 ft 11 kts 338°
2026-05-04 09:11 53.35768 -2.27165 239 ft 10 kts 17°
2026-05-04 09:12 53.35829 -2.27198 239 ft 10 kts 325°
2026-05-04 09:12 53.35892 -2.27227 240 ft 9 kts 351°